Regional Weather Roundup
Issued by NWS

Home | Current Version | Previous Version | Text Only | Print | Product List | Glossary On
Versions: 1 2 3 4 5 6 7 8 9 10 11 12 13 14 15 16 17 18 19 20 21 22 23 24 25 26 27 28 29 30 31 32 33 34 35 36 37 38 39 40 41 42 43 44 45 46 47 48 49
000
ASUS43 KMPX 130610
RWRMN
WEATHER ROUNDUP FOR MINNESOTA
NATIONAL WEATHER SERVICE TWIN CITIES/CHANHASSEN MN
100 AM CDT THU AUG 13 2020


NOTE: "FAIR" INDICATES FEW OR NO CLOUDS BELOW 12,000 FEET WITH NO
SIGNIFICANT WEATHER AND/OR OBSTRUCTIONS TO VISIBILITY. N/A MEANS
CURRENT SKY AND/OR WEATHER CONDITIONS ARE NOT AVAILABLE.

MNZ060>063-068>070-130700-
   Twin Cities Metro

CITY           SKY/WX    TMP DP  RH WIND       PRES   REMARKS
TWIN CITIES    MOCLDY    68  64  87 SE5       30.01S
6HR MIN TEMP:  66; 6HR MAX TEMP:  68;

ST PAUL        CLEAR     68  63  84 SE7       30.01F
CRYSTAL        MOCLDY    67  63  87 E3        30.00S
BLAINE         PTCLDY    66  64  94 E5        30.02S
LAKEVILLE      MOCLDY    68  66  94 SE3       30.02S FOG
EDEN PRAIRIE   MOCLDY    68  64  87 E5        29.99S
6HR MIN TEMP:  66; 6HR MAX TEMP:  69; 6HR PCP: TRACE;

SOUTH ST PAUL  CLEAR     67  64  91 CALM      30.01F
LAKE ELMO      FAIR      63  61  94 E3        30.04S
$$
MNZ001>005-007-008-013>017-022>024-027-028-130700-
   Northwest Minnesota

CITY           SKY/WX    TMP DP  RH WIND       PRES   REMARKS
BEMIDJI        CLOUDY    63  59  88 SE16      30.03R
HALLOCK        PTCLDY    66  64  94 SE10      29.94S
ROSEAU         CLEAR     64 N/A N/A SE5       29.99F
WARROAD        CLEAR     64  61  88 SE7       30.01S
CROOKSTON      CLEAR     64  63  94 SE12      29.95F
FOSSTON        CLEAR     63  57  82 SE7       30.00R
DETROIT LAKES    N/A     64  61  88 SE9       29.99S
MOORHEAD       CLEAR    N/A N/A N/A SE9       29.93S
PARK RAPIDS    CLOUDY    64  58  80 SE10      30.01F
MAHNOMEN       FAIR      64  61  90 SE9       29.97S
$$
MNZ006-009>011-018-025>026-130700-
   North Central Minnesota

CITY           SKY/WX    TMP DP  RH WIND       PRES   REMARKS
BAUDETTE       CLEAR     63  60  90 SE8       30.04R
FLAG ISLAND      N/A     70  63  78 S8        30.01S
INTL FALLS     CLEAR     63  58  83 VRB3      30.06R
6HR MIN TEMP:  60; 6HR MAX TEMP:  77;

WASKISH          N/A     61  57  88 SE6       30.04R
BIG FORK       CLEAR     59  54  82 CALM      30.11R
GRAND RAPIDS   CLEAR     57  56  96 SE5       30.08S
CRANE LAKE     CLEAR     55  55 100 CALM      30.10S
ORR            CLEAR     57  54  88 SE3       30.07R
COOK           CLEAR     57  55  94 CALM      30.08F
WALKER         CLOUDY    62  59  90 SE5       30.04R
$$
MNZ012-019>021-037-130700-
   Northeast Minnesota

CITY           SKY/WX    TMP DP  RH WIND       PRES   REMARKS
DULUTH         MOCLDY    62  58  86 SE8       30.10R
6HR MIN TEMP:  59; 6HR MAX TEMP:  63; 6HR PCP:  0.01;

ELY            CLEAR     57  54  88 SE3       30.11R
HIBBING        CLEAR     55  52  89 SE5       30.08F
EVELETH        CLEAR     55  54  95 CALM      30.11S
DULUTH HARBOR  CLOUDY    64  59  82 CALM      30.10R
SILVER BAY       N/A     55  54  94 CALM      30.11F
GRAND MARAIS     N/A     61  56  83 CALM      30.09R
G MARAIS ARPRT PTCLDY    61  50  67 W3        30.14R
$$
MNZ029>031-032-039>041-046>048-054>057-064-130700-
   West Central Minnesota

CITY           SKY/WX    TMP DP  RH WIND       PRES   REMARKS
FERGUS FALLS   PTCLDY    66  63  88 SE10      29.95R
WHEATON        CLEAR     64  61  88 SE9       29.93F
MORRIS         CLEAR     66  66 100 SE10      29.95S
ALEXANDRIA     MOCLDY    62  61  96 SE12      30.00R
ELBOW LAKE     FAIR      65  64  96 SE14      29.95R
WADENA         CLOUDY    63  61  94 E7        30.00S
GLENWOOD       CLEAR     63  63 100 E10       29.99S
APPLETON       CLEAR     66  63  88 E9        29.93S
BENSON         CLEAR     66  63  88 SE8       29.96S
ORTONVILLE     CLEAR     66  64  94 SE12      29.92S
MADISON        CLEAR     70  68  94 E9        29.93R
WILLMAR        FAIR      70  64  83 E10       30.00S
$$
MNZ033>034-036-042>043-049>051-058-059-130700-
   Central Minnesota

CITY           SKY/WX    TMP DP  RH WIND       PRES   REMARKS
ST CLOUD       CLOUDY    62  59  90 E8        30.01S
6HR MIN TEMP:  62; 6HR MAX TEMP:  63;

SAUK CENTRE    CLOUDY    63  61  95 E7        30.00S
PAYNESVILLE    CLOUDY    65  64  95 E8        30.00R
PINE RIVER     CLOUDY    61  55  82 E8        30.06F
BRAINERD       CLOUDY    65  60  84 E5        30.03F
STAPLES          N/A     61  59  94 E5        30.01F
LONG PRAIRIE   CLOUDY    61  59  94 E6        30.01S
LITTLE FALLS   CLOUDY    61  59  94 E5        30.02S
CAMP RIPLEY    CLOUDY    63  60  90 E6        30.03S
LITCHFIELD     MOCLDY    70  66  88 SE7       30.00S
BUFFALO        CLOUDY    65  62  89 MISG      30.02S
MAPLE LAKE       N/A     66  64  94 SE5       30.02S
HUTCHINSON     CLOUDY    68  66  96 E7        30.01R
$$
MNZ037-044-045-052-053-130700-
   East Central Minnesota

CITY           SKY/WX    TMP DP  RH WIND       PRES   REMARKS
PRINCETON      CLOUDY    63  61  94 E6        30.03S
MORA           CLOUDY    59  59 100 CALM      30.06F
CAMBRIDGE      CLOUDY    64  55  72 NE3       30.03F
RUSH CITY      CLOUDY    61  58  91 NE3       30.05S
MOOSE LAKE     CLOUDY    63  59  88 CALM      30.06S
HINCKLEY       CLOUDY    63  63 100 E7        30.06F
CLOQUET        CLOUDY    61  57  88 SE5       30.09S
MCGREGOR       CLOUDY    61  59  94 E6        30.06F
$$
MNZ071>073-080-081-089-090-097-098-130700-
   Southwest Minnesota

CITY           SKY/WX    TMP DP  RH WIND       PRES   REMARKS
MONTEVIDEO     CLEAR     64  63  94 SE9       29.95S
GRANITE FALLS  PTCLDY    68  67  96 E5        29.97R
CANBY          CLEAR     72  70  94 SE5       29.94R
MARSHALL         N/A    N/A N/A N/A MISG        N/A
REDWOOD FALLS  CLEAR     71  69  93 SE8       29.96S
OLIVIA         CLEAR     66  63  88 SE7       29.97R
PIPESTONE        N/A     72  70  94 S6        29.98R
WINDOM         PTCLDY    70  66  88 CALM      29.98R
WORTHINGTON    PTCLDY    71  69  93 S10       29.99R
JACKSON        CLEAR     72  70  94 S6        30.00R
SLAYTON        MOCLDY    71  65  81 S6        29.99S
$$
MNZ065>067-074>077-082>085-091>093-130700-
   South Central Minnesota

CITY           SKY/WX    TMP DP  RH WIND       PRES   REMARKS
MANKATO        PTCLDY    71  69  93 SE10      30.00S
NEW ULM        PTCLDY    72  68  88 SE7       29.99R
ST JAMES         N/A     70  70 100 SE6       29.98R
FAIRMONT       CLEAR     72  70  93 S8        29.99S
GLENCOE        MOCLDY    66  64  94 E3        30.00R
FARIBAULT      MOCLDY    72  64  78 SE7       30.03S
OWATONNA       PTCLDY    72  66  83 SE9G16    30.03S
ALBERT LEA     MOCLDY    70  66  88 SE7       30.04R
$$
MNZ078>079-086>088-094>096-130700-
   Southeast Minnesota

CITY           SKY/WX    TMP DP  RH WIND       PRES   REMARKS
ROCHESTER      PTCLDY    66  62  87 SE8       30.08R
6HR MIN TEMP:  66; 6HR MAX TEMP:  76;

RED WING       CLOUDY    72  63  73 SE6       30.02S
STANTON        PTCLDY    72  64  75 S10G17    30.01S
DODGE CENTER   PTCLDY    66  63  88 SE7       30.06R
WINONA         CLOUDY    68  64  88 CALM      30.07R
AUSTIN         CLOUDY    70  66  88 SE8       30.06R
$$
ABBREVIATIONS USED IN REMARKS
   TC - TEMPERATURES IN CELSIUS
  WCI - WIND CHILL INDEX
   HX - HEAT INDEX
  VSB - VISIBILITY
$$



USA.gov is the U.S. government's official web portal to all federal, state and local government web resources and services.